Flag for U.S.A. Weather past 2 weeks in Simi Valley, California, U.S.A.

Now
80 °F

Sunny.


Feels Like: 80 °F
Forecast: 56 / 78 °F
Wind: 13 mph from South

Location: Van Nuys Airport

Current Time: Jun 2, 2015 at 2:54:13 PM

Latest Report: Jun 2, 2015 at 1:51 PM


Visibility: 10 mi

Pressure: 29.92 "Hg

Humidity: 41%

Dew point: 54 °F

Location of Simi ValleyLocation

Historic Weather in Simi Valley — Graph

°F

Simi Valley temperature yesterday

Maximum temperature yesterday: 82 °F (at 2:51 PM)
Minimum temperature yesterday: 57 °F (at 2:51 AM)
Average temperature yesterday: 67 °F

Past Weeks' High & Low Weather Summary

 TemperatureHumidityPressure
High87 °F (May 29, 3:51 PM)93% (May 29, 5:54 AM)30.07 "Hg (May 29, 5:54 AM)
Low52 °F (May 19, 2:51 AM)29% (May 29, 3:51 PM)29.81 "Hg (May 30, 6:51 PM)
Average64 °F64%29.95 "Hg
* Reported May 18 1:51 PM — Jun 2 1:51 PM, Simi Valley, Weather by CustomWeather, © 2015

Note: Actual official high and low records may vary slightly from our data, if they occured in-between our weather recording intervals... More about our weather records

Advertising

Simi Valley weather history for previous 24 hours

 ConditionsComfort  
Time TempWeatherWind HumidityBarometerVisibility
1:51 PM
Tue, Jun 2
80 °FSunny.13 mph41%29.92 "Hg10 mi
12:51 PM78 °FPassing clouds.12 mph43%29.93 "Hg10 mi
11:51 AM76 °FSunny.9 mph47%29.94 "Hg10 mi
10:51 AM73 °FSunny.5 mph51%29.96 "Hg10 mi
9:51 AM70 °FSunny.8 mph59%29.96 "Hg10 mi
8:51 AM65 °FSunny.No wind70%29.97 "Hg10 mi
7:51 AM61 °FScattered clouds.No wind81%29.97 "Hg8 mi
6:51 AM59 °FPartly sunny.5 mph87%29.97 "Hg9 mi
5:51 AM58 °FClear.No wind87%29.96 "Hg10 mi
4:51 AM58 °FClear.No wind87%29.96 "Hg10 mi
3:51 AM58 °FClear.3 mph87%29.96 "Hg10 mi
2:51 AM60 °FClear.5 mph80%29.95 "Hg10 mi
1:51 AM61 °FClear.5 mph78%29.95 "Hg10 mi
12:51 AM62 °FClear.3 mph75%29.96 "Hg10 mi
11:51 PM
Mon, Jun 1
63 °FClear.3 mph73%29.97 "Hg10 mi
10:51 PM63 °FClear.5 mph73%29.97 "Hg10 mi
9:51 PM66 °FClear.5 mph63%29.97 "Hg10 mi
7:51 PM70 °FSunny.6 mph53%29.95 "Hg10 mi
6:51 PM73 °FSunny.7 mph48%29.94 "Hg10 mi
5:51 PM75 °FSunny.9 mph45%29.93 "Hg10 mi
4:51 PM79 °FSunny.9 mph39%29.93 "Hg10 mi
3:51 PM79 °FSunny.13 mph38%29.93 "Hg10 mi
2:51 PM82 °FSunny.12 mph35%29.93 "Hg10 mi
Weather by CustomWeather, © 2015

See weather overviewHow to use our weather pages